When you browse on this site, cookies collect data to enhance your experience and personalize the content and advertising you see.
Visit our Privacy Policy to learn more. By continuing to use the site, you agree to this use of cookies and data.
  • In Österreich
  • Länderverzeichnis
  • Für 7 Tage
  • Wassertemperatur
  • Satellitenkarten
  • Wetterkarte
  • News
  • Widgets
  • user-avatar
    Anmelden

    Stündliche Wetter Elbasan

    Heute, 21 Februar, Donnerstag

    Zeit Temperatur Niederschläge Wind Luftdruck Luftfeuchtigkeit
    00:00 +8°C° 0 mm 1 m/S 740 mmHg 79%
    01:00 +8°C° 0 mm 1 m/S 740 mmHg 77%
    02:00 +8°C° 0 mm 1 m/S 740 mmHg 76%
    03:00 +7°C° 0 mm 1 m/S 740 mmHg 74%
    04:00 +7°C° 0 mm 1 m/S 740 mmHg 73%
    05:00 +7°C° 0 mm 1 m/S 740 mmHg 72%
    06:00 +6°C° 0 mm 2 m/S 740 mmHg 72%
    07:00 +6°C° 0 mm 2 m/S 741 mmHg 72%
    08:00 +9°C° 0 mm 1 m/S 741 mmHg 65%
    09:00 +11°C° 0 mm 1 m/S 741 mmHg 59%
    10:00 +14°C° 0 mm 1 m/S 741 mmHg 52%
    11:00 +14°C° 0 mm 1 m/S 741 mmHg 50%
    12:00 +15°C° 0 mm 1 m/S 741 mmHg 47%
    13:00 +16°C° 0 mm 1 m/S 741 mmHg 45%
    14:00 +16°C° 0 mm 1 m/S 741 mmHg 47%
    15:00 +15°C° 0 mm 2 m/S 740 mmHg 49%
    16:00 +15°C° 0 mm 2 m/S 740 mmHg 52%
    17:00 +14°C° 0 mm 1 m/S 740 mmHg 57%
    18:00 +12°C° 0 mm 1 m/S 741 mmHg 63%
    19:00 +11°C° 0 mm 1 m/S 741 mmHg 69%
    20:00 +10°C° 0 mm 1 m/S 741 mmHg 69%
    21:00 +10°C° 0 mm 1 m/S 741 mmHg 70%
    22:00 +9°C° 0 mm 1 m/S 741 mmHg 70%
    23:00 +9°C° 0 mm 1 m/S 741 mmHg 71%

    Morgen, 22 Februar, Freitag

    Zeit Temperatur Niederschläge Wind Luftdruck Luftfeuchtigkeit
    00:00 +9°C° 0 mm 1 m/S 741 mmHg 71%
    01:00 +8°C° 0 mm 1 m/S 741 mmHg 71%
    02:00 +8°C° 0 mm 1 m/S 740 mmHg 72%
    03:00 +8°C° 0 mm 1 m/S 740 mmHg 72%
    04:00 +7°C° 0 mm 1 m/S 739 mmHg 73%
    05:00 +7°C° 0 mm 1 m/S 739 mmHg 73%
    06:00 +7°C° 0 mm 1 m/S 739 mmHg 74%
    07:00 +7°C° 0 mm 1 m/S 739 mmHg 74%
    08:00 +9°C° 0 mm 1 m/S 739 mmHg 67%
    09:00 +10°C° 0 mm 1 m/S 739 mmHg 60%
    10:00 +12°C° 0 mm 1 m/S 739 mmHg 54%
    11:00 +12°C° 0 mm 1 m/S 738 mmHg 53%
    12:00 +12°C° 0 mm 2 m/S 737 mmHg 52%
    13:00 +12°C° 0 mm 2 m/S 737 mmHg 51%
    14:00 +12°C° 0 mm 2 m/S 736 mmHg 53%
    15:00 +12°C° 0 mm 2 m/S 736 mmHg 55%
    16:00 +12°C° 0 mm 2 m/S 736 mmHg 56%
    17:00 +10°C° 0 mm 2 m/S 736 mmHg 63%
    18:00 +9°C° 0 mm 1 m/S 736 mmHg 69%
    19:00 +7°C° 0 mm 0 m/S 736 mmHg 76%
    20:00 +8°C° 0 mm 1 m/S 736 mmHg 76%
    21:00 +8°C° 0 mm 1 m/S 736 mmHg 76%
    22:00 +7°C° 0 mm 1 m/S 736 mmHg 76%
    23:00 +7°C° 0 mm 1 m/S 735 mmHg 75%

    übermorgen, 23 Februar, Samstag

    Zeit Temperatur Niederschläge Wind Luftdruck Luftfeuchtigkeit
    00:00 +7°C° 0 mm 1 m/S 735 mmHg 74%
    01:00 +7°C° 0 mm 1 m/S 735 mmHg 74%
    02:00 +6°C° 0 mm 2 m/S 735 mmHg 74%
    03:00 +6°C° 0 mm 2 m/S 735 mmHg 75%
    04:00 +5°C° 0 mm 2 m/S 735 mmHg 75%
    05:00 +5°C° 0 mm 2 m/S 735 mmHg 75%
    06:00 +4°C° 0 mm 3 m/S 736 mmHg 74%
    07:00 +4°C° 0 mm 3 m/S 736 mmHg 73%
    08:00 +5°C° 0 mm 4 m/S 736 mmHg 62%
    09:00 +6°C° 0 mm 5 m/S 736 mmHg 52%
    10:00 +7°C° 0 mm 6 m/S 737 mmHg 41%
    11:00 +5°C° 0 mm 7 m/S 737 mmHg 40%
    12:00 +3°C° 0 mm 9 m/S 737 mmHg 38%
    13:00 +3°C° 0 mm 10 m/S 737 mmHg 37%
    14:00 +2°C° 0 mm 10 m/S 737 mmHg 39%
    15:00 +1°C° 0 mm 11 m/S 737 mmHg 40%
    16:00 +1°C° 0 mm 11 m/S 738 mmHg 41%
    17:00 -1°C° 0 mm 9 m/S 738 mmHg 42%
    18:00 -2°C° 0 mm 8 m/S 739 mmHg 42%
    19:00 -3°C° 0 mm 6 m/S 739 mmHg 42%
    20:00 -3°C° 0 mm 6 m/S 740 mmHg 42%
    21:00 -2°C° 0 mm 5 m/S 740 mmHg 42%
    22:00 -4°C° 0 mm 5 m/S 741 mmHg 41%
    23:00 -4°C° 0 mm 5 m/S 741 mmHg 40%

    24 Februar, Sonntag

    Zeit Temperatur Niederschläge Wind Luftdruck Luftfeuchtigkeit
    00:00 -4°C° 0 mm 5 m/S 741 mmHg 40%
    01:00 -4°C° 0 mm 5 m/S 741 mmHg 39%
    02:00 -4°C° 0 mm 5 m/S 741 mmHg 39%
    03:00 -4°C° 0 mm 5 m/S 741 mmHg 39%
    04:00 -4°C° 0 mm 4 m/S 741 mmHg 39%
    05:00 -4°C° 0 mm 4 m/S 741 mmHg 39%
    06:00 -5°C° 0 mm 5 m/S 741 mmHg 39%
    07:00 -5°C° 0 mm 5 m/S 742 mmHg 39%
    08:00 -2°C° 0 mm 5 m/S 742 mmHg 35%
    09:00 -1°C° 0 mm 5 m/S 742 mmHg 30%
    10:00 +1°C° 0 mm 6 m/S 742 mmHg 26%
    11:00 +2°C° 0 mm 6 m/S 742 mmHg 26%
    12:00 +2°C° 0 mm 6 m/S 742 mmHg 25%
    13:00 +3°C° 0 mm 6 m/S 742 mmHg 25%
    14:00 +3°C° 0 mm 6 m/S 741 mmHg 27%
    15:00 +3°C° 0 mm 5 m/S 741 mmHg 28%
    16:00 +2°C° 0 mm 5 m/S 741 mmHg 30%
    17:00 +1°C° 0 mm 5 m/S 742 mmHg 35%
    18:00 0°C° 0 mm 4 m/S 742 mmHg 40%
    19:00 0°C° 0 mm 3 m/S 742 mmHg 45%
    20:00 -1°C° 0 mm 3 m/S 743 mmHg 46%
    21:00 -1°C° 0 mm 3 m/S 743 mmHg 47%
    22:00 -1°C° 0 mm 3 m/S 743 mmHg 49%
    23:00 -1°C° 0 mm 3 m/S 743 mmHg 48%

    25 Februar, Montag

    Zeit Temperatur Niederschläge Wind Luftdruck Luftfeuchtigkeit
    00:00 -1°C° 0 mm 3 m/S 743 mmHg 48%
    01:00 -2°C° 0 mm 3 m/S 743 mmHg 48%
    02:00 -2°C° 0 mm 3 m/S 742 mmHg 47%
    03:00 -2°C° 0 mm 3 m/S 742 mmHg 46%
    04:00 -2°C° 0 mm 3 m/S 741 mmHg 46%
    05:00 -2°C° 0 mm 3 m/S 741 mmHg 44%
    06:00 -2°C° 0 mm 3 m/S 741 mmHg 43%
    07:00 -2°C° 0 mm 3 m/S 740 mmHg 41%
    08:00 +1°C° 0 mm 3 m/S 740 mmHg 36%
    09:00 +3°C° 0 mm 4 m/S 740 mmHg 30%
    10:00 +5°C° 0 mm 4 m/S 740 mmHg 24%
    11:00 +6°C° 0 mm 4 m/S 739 mmHg 24%
    12:00 +8°C° 0 mm 3 m/S 739 mmHg 25%
    13:00 +10°C° 0 mm 3 m/S 738 mmHg 25%
    14:00 +9°C° 0 mm 3 m/S 738 mmHg 28%
    15:00 +9°C° 0 mm 2 m/S 738 mmHg 31%
    16:00 +9°C° 0 mm 2 m/S 738 mmHg 34%
    17:00 +8°C° 0 mm 2 m/S 738 mmHg 39%
    18:00 +6°C° 0 mm 2 m/S 738 mmHg 45%
    19:00 +4°C° 0 mm 2 m/S 738 mmHg 50%
    20:00 +4°C° 0 mm 2 m/S 739 mmHg 51%
    21:00 +2°C° 0 mm 3 m/S 739 mmHg 53%
    22:00 +2°C° 0 mm 3 m/S 739 mmHg 54%
    23:00 +2°C° 0 mm 3 m/S 739 mmHg 57%

    26 Februar, Dienstag

    Zeit Temperatur Niederschläge Wind Luftdruck Luftfeuchtigkeit
    00:00 +1°C° 0 mm 3 m/S 739 mmHg 60%
    01:00 +2°C° 0 mm 2 m/S 739 mmHg 62%
    02:00 +2°C° 0 mm 2 m/S 739 mmHg 65%
    03:00 +2°C° 0 mm 2 m/S 739 mmHg 68%
    04:00 +2°C° 0 mm 2 m/S 739 mmHg 70%
    05:00 +2°C° 0 mm 2 m/S 739 mmHg 71%
    06:00 +2°C° 0 mm 3 m/S 739 mmHg 72%
    07:00 +2°C° 0 mm 3 m/S 739 mmHg 73%
    08:00 +4°C° 0 mm 3 m/S 740 mmHg 63%
    09:00 +7°C° 0 mm 3 m/S 740 mmHg 53%
    10:00 +9°C° 0 mm 3 m/S 740 mmHg 43%
    11:00 +10°C° 0 mm 2 m/S 740 mmHg 40%
    12:00 +12°C° 0 mm 2 m/S 740 mmHg 36%
    13:00 +13°C° 0 mm 2 m/S 739 mmHg 33%
    14:00 +13°C° 0 mm 2 m/S 739 mmHg 34%
    15:00 +13°C° 0 mm 2 m/S 739 mmHg 36%
    16:00 +12°C° 0 mm 2 m/S 739 mmHg 37%
    17:00 +10°C° 0 mm 2 m/S 739 mmHg 41%
    18:00 +8°C° 0 mm 2 m/S 739 mmHg 45%
    19:00 +7°C° 0 mm 2 m/S 739 mmHg 49%
    20:00 +6°C° 0 mm 2 m/S 739 mmHg 50%
    21:00 +6°C° 0 mm 2 m/S 739 mmHg 51%
    22:00 +6°C° 0 mm 2 m/S 739 mmHg 52%
    23:00 +5°C° 0 mm 2 m/S 739 mmHg 52%
    Mehr zeigen